Location: Asheville, NC
(35.6000°N, 82.5500°W)
Time: 23:59:42

YUBILEINY - Pass Details

Date: 10 March 2018
Orbit: 1478 x 1509 km, 82.5° (Epoch: 19 March)

Event Time Altitude Azimuth Distance (km) Brightness Sun altitude
Rises 19:14:20 0° 207° (SSW) 4,595 ? -9.1°
Reaches altitude 10° 19:17:24 10° 214° (SW) 3,615 ? -9.7°
Maximum altitude 19:25:31 43° 284° (WNW) 1,977 ? -11.4°
Drops below altitude 10° 19:33:41 10° 353° (N) 3,620 ? -13.0°
Sets 19:36:48 0° 1° (N) 4,603 ? -13.7°
